Regional Weather Roundup
Issued by NWS

Home | Current Version | Previous Version | Text Only | Print | Product List | Glossary On
Versions: 1 2 3 4 5 6 7 8 9 10 11 12 13 14 15 16 17 18 19 20 21 22 23 24 25 26 27 28 29 30 31 32 33 34 35 36 37 38 39 40 41 42 43 44 45 46 47 48 49 50
000
ASUS43 KTOP 280108
RWRKS

WEATHER ROUNDUP FOR KANSAS
NATIONAL WEATHER SERVICE GOODLAND KS
700 PM CST FRI FEB 27 2015

NOTE:  "FAIR" INDICATES FEW OR NO CLOUDS BELOW 12,000 FEET WITH NO
SIGNIFICANT WEATHER AND/OR OBSTRUCTIONS TO VISIBILITY.

KSZ001>006-013>018-027>032-041>047-280200-
NORTHWEST KANSAS

CITY           SKY/WX    TMP DP  RH WIND       PRES   REMARKS
GOODLAND       FLURRIES  13   8  81 S18G28    30.16R WCI  -4
HAYS           CLOUDY    18   1  49 S10       30.37S WCI   6
HILL CITY      CLOUDY    18   7  62 S12       30.35R WCI   5
RUSSELL        CLEAR     15   8  73 SE9       30.39R
$$

KSZ061>065-074>080-084>089-280200-
SOUTHWEST KANSAS

CITY           SKY/WX    TMP DP  RH WIND       PRES   REMARKS
DODGE CITY     CLOUDY    13   6  74 SE12      30.32S WCI  -1
ELKHART          N/A     13   5  70 SE15        N/A  WCI  -3
GARDEN CITY    CLOUDY    12   7  80 SE12      30.26S WCI  -2
GREAT BEND     CLOUDY    16   5  62 S10       30.41R WCI   3
LIBERAL        CLOUDY    14   7  73 E13       30.27S WCI   0
PRATT          FLURRIES  14   9  79 SE7       30.41S
$$

KSZ066>073-081>083-090>101-280200-
SOUTHEAST KANSAS

CITY           SKY/WX    TMP DP  RH WIND       PRES   REMARKS
CHANUTE        FLURRIES  18  11  74 E5        30.53S
COFFEYVILLE    FLURRIES  19  11  70 E5        30.54F
HUTCHINSON     CLOUDY    14   8  77 SE6       30.45F
MEDICINE LODGE   N/A     14  10  84 SE5       30.44S
NEWTON         MOCLDY    14   7  73 SE6       30.47S
PARSONS        CLOUDY    20   6  55 NE5       30.54S
WICHITA INTL   CLOUDY    16   9  74 SE7       30.47F
WICHITA JABRA  FLURRIES  14   9  80 SE5       30.47F
WICHITA MCCONL CLOUDY    15  11  82 E6        30.47S
WINFIELD       CLOUDY    17  10  74 E8        30.50S
$$

KSZ007>012-019>026-033>040-048>060-102>105-280200-
NORTHEAST KANSAS

CITY           SKY/WX    TMP DP  RH WIND       PRES   REMARKS
CONCORDIA      CLEAR     13   3  64 SE7       30.46R
EMPORIA        LGT SNOW  16   9  74 S7        30.51R
LAWRENCE       CLOUDY    15   1  53 NE3       30.56S
MANHATTAN      CLOUDY    17   4  56 E6        30.51S
MARYSVILLE     CLOUDY    19   1  45 S6        30.49R
OLATHE IND     CLOUDY    18   2  49 E5        30.54R
OLATHE EXE     CLOUDY    18   1  47 E5        30.53R
SALINA         CLOUDY    18   7  62 S12       30.48S WCI   5
TOPEKA BILLARD CLOUDY    19   0  43 E3        30.55S
TOPEKA FORBES  MOCLDY    19   1  45 NE5       30.53R
$$


USA.gov is the U.S. government's official web portal to all federal, state and local government web resources and services.